Temp
65 65 65 65 65 65 65 65 65 65 65 65 65 65 65 66 65 62 58 66 67 70 69 68 67 65 64 61 62 57 49 45 48 50 51 56 55 59 60 59 58 59 57 58 61
65 65 65 65 64 65 65 65 64 64 65 65 65 65 65 65 61 59 68 71 71 70 66 62 59 62 58 58 58 54 47 50 54 53 52 56 55 56 56 55 55 56 57 59 61
63 64 64 65 64 64 64 64 64 64 64 64 64 64 64 63 54 57 69 71 71 69 65 64 62 59 54 55 54 51 49 53 56 57 57 56 55 56 55 53 59 57 57 57 58
62 63 64 64 64 64 64 63 63 63 64 64 64 64 63 60 44 60 68 69 69 67 63 61 58 53 50 50 54 48 54 55 58 58 57 55 57 58 55 59 62 60 59 58 59
62 61 62 63 63 64 64 64 63 63 63 64 64 64 59 52 54 65 67 67 66 64 61 58 55 53 49 50 52 49 52 56 58 57 56 57 56 57 56 63 60 61 60 59 59
61 61 61 62 63 63 64 63 63 63 63 63 64 63 55 47 64 65 64 63 63 64 59 59 56 57 51 50 50 52 52 53 55 56 56 55 52 55 55 58 60 57 58 58 58
61 61 61 61 62 63 63 63 63 63 63 63 64 59 55 53 62 62 63 61 62 61 57 60 58 55 54 49 54 52 49 51 51 54 54 54 51 50 57 56 57 58 57 57 58
59 60 60 61 61 62 62 63 62 63 63 63 63 55 48 62 61 62 61 59 61 61 61 59 60 56 55 53 51 46 45 40 49 52 54 53 45 53 54 51 55 56 55 56 58
57 59 60 60 60 61 62 61 61 62 63 63 54 51 44 61 55 60 60 57 57 57 57 61 59 55 54 50 46 45 39 38 45 49 49 50 42 53 54 53 52 52 53 55 56
56 58 60 60 60 61 61 61 61 61 60 60 55 47 49 47 55 58 57 58 54 54 53 53 52 48 48 47 38 43 41 42 41 44 45 45 44 49 53 51 50 50 50 51 55
56 55 59 60 60 61 59 54 49 48 51 46 47 46 47 52 57 54 57 55 54 52 45 50 45 42 48 49 49 45 40 38 38 47 43 43 43 47 51 48 48 52 53 55 58
56 55 58 60 60 61 55 49 52 53 45 51 50 49 51 54 48 51 57 50 49 44 48 45 41 45 50 49 47 46 41 42 43 46 44 43 45 51 49 50 54 55 57 58 59
56 55 55 59 60 57 52 52 57 54 44 45 49 49 49 53 46 48 52 49 45 42 44 43 45 49 47 43 42 43 41 39 42 42 44 40 43 48 55 52 53 54 55 58 58
55 55 55 59 53 53 48 54 54 53 36 40 43 47 49 49 43 52 54 52 47 44 44 45 51 46 41 41 42 38 43 43 41 38 34 41 33 45 44 48 49 52 51 54 58
53 55 56 59 51 48 52 54 52 50 23 41 42 54 49 47 45 46 50 47 41 42 44 41 42 44 42 42 45 40 44 41 40 36 35 38 35 36 41 43 51 54 51 54 51
53 55 57 53 51 53 54 53 50 32 23 35 42 41 41 44 42 47 45 49 46 42 40 40 44 45 43 44 47 45 43 42 40 40 32 37 37 39 43 46 49 47 48 49 48
53 55 55 52 46 53 53 48 32 26 37 33 37 40 40 39 41 43 41 40 36 33 35 37 40 42 44 40 42 43 40 31 30 29 29 33 35 40 46 48 47 48 48 45 47
52 55 53 52 52 53 49 38 26 32 32 39 40 41 36 40 41 40 40 38 40 35 33 33 24 39 43 42 39 39 41 33 24 23 27 32 31 40 46 45 49 49 49 48 47
53 48 48 50 53 52 41 29 29 29 37 37 38 34 35 39 38 39 38 39 41 39 32 30 30 40 41 44 46 39 36 44 32 26 24 29 33 43 44 46 43 43 47 45 44
45 44 44 50 51 46 35 31 28 37 38 41 33 38 31 35 37 37 36 41 39 43 40 36 26 36 39 43 44 42 44 34 34 26 20 27 26 33 39 42 42 43 44 42 41
43 35 44 51 49 38 29 30 31 39 41 37 34 34 38 35 38 35 37 38 45 41 42 37 33 35 40 38 38 39 37 37 35 34 27 27 29 36 36 39 40 43 42 39 38
39 30 45 48 34 32 30 31 39 37 42 39 36 35 36 38 36 36 37 40 45 44 38 40 33 26 36 41 43 42 42 40 31 30 32 30 31 39 37 40 43 40 39 39 39
32 35 45 44 28 28 31 33 36 35 38 36 36 37 37 38 34 38 39 42 43 43 40 42 35 22 31 36 39 37 41 41 36 32 31 28 31 43 42 39 41 39 39 39 39
34 28 35 37 34 27 29 28 30 37 37 40 37 38 36 35 38 37 40 40 44 45 46 47 33 34 29 30 35 33 36 39 37 31 32 34 35 38 38 39 40 41 39 40 39
30 23 28 28 30 30 31 31 29 30 37 40 37 35 35 32 35 31 38 37 42 46 44 43 32 31 31 32 34 33 34 37 36 38 32 36 35 41 40 41 44 43 41 39 37
29 30 32 29 30 32 32 29 31 31 35 31 34 39 35 32 37 34 37 36 37 41 42 42 32 33 26 34 33 31 33 36 37 39 38 36 34 42 43 42 41 41 38 36 35
37 38 31 29 32 30 30 31 32 36 37 39 38 37 35 37 40 42 45 43 41 39 40 39 34 30 27 30 32 29 34 34 37 37 39 34 38 38 37 41 39 36 35 32 31
MSLP
1014.84 1015.13 1015.49 1015.81 1015.98 1016.30 1016.56 1016.89 1017.23 1017.57 1017.83 1018.07 1018.15 1018.24 1018.30 1018.29 1018.38 1018.41 1018.27 1017.53 1017.42 1017.22 1016.91 1016.56 1016.41 1016.51 1016.34 1016.76 1016.90 1017.30 1018.21 1018.64 1017.87 1017.55 1016.93 1016.66 1016.52 1016.38 1016.36 1016.58 1016.80 1016.93 1017.09 1017.35 1017.54
1014.50 1014.77 1014.93 1015.31 1015.63 1015.84 1016.25 1016.54 1016.93 1017.30 1017.63 1017.87 1018.05 1018.15 1018.22 1018.38 1018.53 1018.25 1017.35 1017.18 1017.22 1017.31 1017.29 1017.29 1017.38 1017.27 1017.33 1017.44 1017.42 1017.79 1018.56 1018.21 1017.43 1017.08 1016.87 1016.66 1016.56 1016.52 1016.53 1016.63 1016.85 1017.06 1017.24 1017.45 1017.71
1014.18 1014.33 1014.39 1014.72 1014.99 1015.44 1015.88 1016.29 1016.69 1017.04 1017.40 1017.68 1017.86 1018.01 1018.17 1018.36 1018.57 1017.54 1016.72 1016.80 1017.10 1017.46 1017.64 1017.73 1017.76 1017.82 1017.95 1017.88 1017.92 1018.10 1018.22 1017.81 1017.25 1016.91 1016.82 1016.77 1016.69 1016.66 1016.63 1016.74 1016.69 1016.95 1017.28 1017.79 1018.03
1013.63 1013.93 1014.03 1014.38 1014.69 1015.06 1015.43 1015.90 1016.42 1016.80 1017.13 1017.43 1017.70 1017.83 1018.00 1018.38 1018.33 1016.96 1016.73 1016.66 1017.05 1017.52 1017.81 1017.84 1018.01 1018.15 1018.37 1018.36 1018.19 1018.38 1017.99 1017.71 1017.30 1017.01 1017.05 1016.98 1016.90 1016.85 1016.76 1016.44 1016.31 1016.70 1017.10 1017.72 1018.09
1013.15 1013.42 1013.61 1013.89 1014.20 1014.65 1015.11 1015.55 1016.10 1016.58 1016.90 1017.24 1017.55 1017.73 1018.13 1018.27 1017.46 1016.79 1016.81 1016.74 1017.07 1017.67 1017.92 1018.11 1018.30 1018.44 1018.58 1018.59 1018.46 1018.34 1018.18 1017.93 1017.60 1017.38 1017.35 1017.27 1017.28 1017.21 1016.77 1016.42 1016.60 1016.90 1017.18 1017.62 1017.87
1012.44 1012.78 1013.13 1013.47 1013.86 1014.24 1014.65 1015.20 1015.75 1016.33 1016.73 1017.03 1017.39 1017.71 1018.07 1017.72 1016.80 1016.80 1017.06 1017.31 1017.40 1017.75 1018.08 1018.21 1018.29 1018.39 1018.59 1018.66 1018.70 1018.46 1018.43 1018.30 1018.04 1017.79 1017.55 1017.57 1017.57 1017.60 1016.91 1016.69 1016.78 1017.07 1017.37 1017.66 1017.87
1011.95 1012.02 1012.54 1013.08 1013.44 1013.93 1014.34 1014.85 1015.41 1015.95 1016.55 1016.93 1017.31 1017.78 1017.73 1017.01 1016.78 1016.78 1017.08 1017.43 1017.59 1017.82 1018.21 1018.29 1018.31 1018.52 1018.63 1018.87 1018.68 1018.65 1018.81 1018.59 1018.38 1018.15 1017.95 1017.79 1017.83 1017.68 1017.08 1017.41 1017.58 1017.64 1017.47 1017.66 1017.70
1011.34 1011.58 1011.98 1012.64 1013.14 1013.59 1014.08 1014.58 1015.06 1015.70 1016.27 1016.82 1017.28 1018.02 1017.50 1016.74 1016.92 1017.04 1017.20 1017.72 1017.92 1018.02 1018.20 1018.37 1018.47 1018.73 1018.77 1019.00 1019.04 1019.21 1019.33 1019.32 1018.76 1018.50 1018.18 1018.37 1017.85 1017.64 1017.48 1017.66 1017.79 1017.91 1017.70 1017.47 1017.14
1010.94 1011.20 1011.40 1011.87 1012.68 1013.28 1013.89 1014.39 1014.95 1015.42 1016.12 1016.77 1017.83 1017.97 1017.80 1016.58 1016.93 1017.06 1017.18 1017.74 1018.25 1018.55 1018.63 1018.59 1018.69 1018.97 1019.11 1019.27 1019.67 1019.52 1019.61 1019.79 1019.58 1019.23 1018.98 1018.99 1018.38 1017.96 1017.69 1017.80 1018.03 1018.10 1017.98 1017.62 1017.05
1010.76 1010.73 1011.02 1011.48 1012.18 1012.77 1013.55 1014.28 1014.87 1015.62 1016.36 1016.97 1017.74 1018.17 1017.40 1016.73 1016.67 1017.01 1017.37 1017.77 1018.32 1018.81 1019.12 1019.15 1019.09 1019.13 1019.32 1019.29 1018.63 1019.37 1019.74 1020.06 1019.98 1019.89 1019.69 1019.47 1018.82 1018.70 1018.08 1018.07 1018.08 1017.77 1017.71 1017.62 1016.80
1010.33 1010.47 1010.50 1010.91 1011.40 1012.31 1013.72 1014.76 1015.41 1015.89 1015.48 1015.47 1016.00 1016.40 1016.18 1016.41 1016.34 1016.79 1017.35 1017.79 1018.32 1018.77 1018.92 1019.22 1019.33 1018.47 1018.71 1019.03 1019.17 1019.45 1019.79 1020.16 1020.44 1020.22 1020.29 1019.62 1018.69 1018.41 1018.04 1017.90 1017.81 1017.39 1016.94 1016.40 1015.56
1008.91 1009.87 1009.93 1010.30 1010.96 1011.75 1013.10 1013.30 1013.40 1013.18 1014.76 1015.41 1015.69 1016.30 1016.10 1016.09 1016.65 1016.92 1017.10 1017.77 1018.28 1018.38 1018.73 1019.21 1018.03 1018.82 1018.92 1019.01 1019.36 1019.50 1019.93 1020.33 1020.63 1020.37 1020.58 1019.60 1017.56 1017.67 1017.61 1017.11 1016.88 1016.61 1016.06 1015.29 1014.33
1008.51 1008.94 1009.44 1009.74 1010.56 1011.54 1012.18 1012.81 1012.90 1013.34 1014.62 1015.44 1015.55 1016.08 1015.97 1016.09 1016.27 1016.52 1016.94 1017.38 1017.86 1018.31 1018.40 1018.26 1017.98 1018.22 1018.82 1019.14 1019.45 1019.69 1019.97 1020.64 1020.81 1020.79 1020.47 1020.16 1016.97 1016.95 1016.01 1015.84 1015.78 1015.71 1015.35 1014.53 1013.85
1007.25 1007.91 1008.84 1009.05 1010.64 1010.79 1011.72 1012.69 1012.84 1013.63 1014.48 1014.83 1015.02 1015.25 1015.60 1016.20 1016.46 1016.09 1016.46 1017.08 1017.82 1017.64 1018.56 1018.38 1018.00 1018.53 1018.94 1018.88 1019.48 1019.69 1019.96 1020.59 1020.97 1021.39 1020.85 1020.12 1016.52 1016.25 1015.89 1015.58 1015.52 1015.05 1014.70 1014.08 1013.63
1006.43 1007.21 1007.78 1008.19 1009.02 1010.40 1011.15 1012.31 1013.19 1013.86 1013.64 1013.50 1014.47 1014.54 1014.71 1015.72 1015.81 1016.28 1016.31 1017.05 1017.41 1017.63 1018.34 1017.83 1018.03 1018.59 1018.72 1018.41 1019.23 1019.61 1019.80 1020.42 1020.89 1021.33 1021.36 1019.96 1019.96 1014.71 1014.99 1014.96 1014.76 1014.02 1014.38 1014.07 1014.10
1006.26 1006.62 1006.73 1007.68 1008.75 1009.74 1010.66 1011.92 1013.34 1013.72 1011.97 1012.89 1013.22 1014.06 1015.10 1015.21 1015.69 1016.13 1016.61 1017.00 1017.54 1018.17 1018.32 1018.30 1018.23 1018.17 1017.86 1018.48 1018.90 1019.46 1019.96 1020.53 1020.87 1021.27 1020.53 1018.91 1019.85 1013.21 1014.16 1013.95 1013.63 1013.69 1014.15 1014.67 1014.79
1004.71 1004.61 1005.47 1006.96 1008.08 1008.96 1010.32 1011.89 1011.76 1010.57 1012.16 1012.40 1012.50 1013.27 1014.05 1014.25 1015.23 1015.60 1016.41 1017.08 1017.25 1018.43 1018.53 1018.63 1018.46 1018.13 1017.95 1018.53 1019.00 1019.27 1019.84 1020.20 1020.44 1020.56 1019.24 1018.62 1019.02 1013.51 1012.91 1013.61 1014.04 1014.29 1014.67 1015.19 1015.25
1003.43 1003.44 1004.74 1006.37 1007.63 1008.67 1010.01 1010.85 1009.77 1010.03 1011.09 1011.48 1011.81 1012.80 1013.06 1013.62 1014.62 1015.16 1015.90 1016.42 1016.89 1017.19 1017.75 1018.22 1018.32 1017.92 1017.87 1017.70 1018.21 1018.83 1019.34 1019.40 1019.44 1019.84 1019.34 1019.06 1017.30 1013.15 1012.94 1013.22 1013.29 1013.85 1014.68 1015.21 1016.08
1002.54 1003.80 1005.03 1006.39 1007.34 1008.36 1009.90 1009.15 1009.16 1009.88 1010.59 1010.70 1011.79 1012.25 1012.89 1013.42 1013.72 1014.57 1014.95 1015.18 1015.57 1016.17 1016.87 1017.51 1017.57 1017.09 1017.23 1017.42 1017.58 1018.32 1018.40 1018.47 1019.22 1019.93 1019.99 1018.32 1016.41 1014.27 1013.48 1013.33 1013.67 1014.69 1015.14 1016.34 1017.30
1003.43 1004.31 1005.58 1006.69 1007.34 1008.86 1010.07 1009.68 1010.25 1010.41 1010.21 1010.18 1010.67 1011.36 1011.77 1012.54 1013.15 1013.86 1014.55 1014.33 1015.07 1015.46 1016.06 1016.64 1017.63 1017.38 1017.38 1017.50 1017.44 1017.62 1017.94 1018.63 1019.04 1019.10 1018.58 1017.88 1017.42 1015.97 1014.94 1014.83 1014.87 1015.33 1016.80 1018.01 1018.61
1004.20 1005.52 1006.40 1007.21 1008.27 1009.61 1009.65 1009.84 1010.27 1010.68 1010.13 1010.09 1010.53 1011.17 1011.22 1011.54 1012.06 1012.68 1013.05 1013.54 1013.89 1014.61 1015.84 1016.37 1016.92 1017.92 1017.64 1017.08 1016.80 1017.67 1017.55 1018.17 1018.82 1018.57 1018.34 1018.07 1017.21 1017.00 1016.74 1016.19 1016.04 1016.88 1017.68 1018.77 1019.36
1004.91 1006.43 1007.03 1007.45 1008.43 1009.18 1009.83 1009.98 1010.29 1010.71 1010.58 1010.47 1010.49 1010.29 1010.53 1011.02 1011.49 1012.20 1012.21 1012.01 1012.52 1013.64 1014.85 1015.87 1016.66 1017.53 1017.01 1016.74 1016.67 1016.56 1016.58 1017.42 1017.77 1018.04 1017.81 1017.56 1016.99 1016.94 1017.14 1016.56 1016.66 1018.12 1018.90 1019.70 1019.97
1006.18 1007.47 1007.84 1008.14 1008.96 1009.41 1009.85 1010.43 1010.99 1011.02 1010.59 1010.87 1010.76 1010.47 1010.29 1010.64 1011.32 1011.50 1011.85 1011.98 1012.15 1013.23 1013.69 1014.69 1015.78 1016.89 1017.25 1017.40 1017.03 1016.57 1016.18 1016.52 1017.19 1017.41 1016.88 1017.55 1016.51 1016.73 1016.99 1016.58 1017.04 1017.99 1019.15 1019.54 1019.94
1006.74 1008.19 1008.79 1009.16 1009.75 1009.79 1010.44 1010.82 1010.90 1010.55 1010.54 1010.45 1011.00 1011.01 1010.66 1010.65 1010.70 1010.85 1011.73 1012.24 1012.19 1012.78 1013.38 1014.02 1014.84 1015.08 1014.89 1014.86 1015.14 1015.99 1015.84 1016.18 1016.80 1016.99 1016.18 1016.14 1015.95 1016.61 1017.01 1017.28 1017.67 1018.37 1018.91 1019.14 1019.93
1006.84 1007.94 1008.01 1008.95 1009.44 1009.81 1009.99 1010.26 1010.57 1010.62 1010.53 1010.37 1010.62 1011.50 1011.20 1011.07 1011.03 1011.23 1011.56 1012.21 1012.34 1012.37 1013.12 1013.67 1014.04 1014.80 1015.07 1015.02 1015.02 1014.84 1014.89 1015.41 1015.86 1014.79 1015.67 1014.65 1015.21 1015.20 1016.05 1016.81 1017.32 1017.77 1018.20 1018.94 1020.12
1006.69 1007.65 1008.29 1008.82 1009.44 1010.41 1010.75 1010.63 1009.75 1009.85 1009.89 1010.28 1010.17 1010.15 1011.39 1011.43 1010.45 1010.34 1010.56 1010.97 1011.27 1012.54 1012.66 1013.42 1013.78 1014.44 1014.95 1014.89 1014.92 1014.97 1014.79 1014.34 1014.19 1014.62 1014.84 1014.73 1014.86 1014.81 1016.02 1016.85 1017.41 1018.07 1019.11 1020.42 1021.52
1007.44 1007.85 1008.24 1009.16 1009.86 1010.61 1009.59 1009.63 1009.22 1009.23 1009.42 1009.28 1009.45 1009.89 1010.45 1010.62 1011.12 1010.25 1009.66 1010.22 1010.56 1011.33 1012.18 1013.14 1013.62 1014.45 1014.93 1015.04 1015.31 1014.93 1012.36 1013.62 1013.70 1013.62 1014.14 1014.60 1013.58 1014.68 1016.04 1017.07 1018.06 1018.98 1020.01 1021.24 1022.52
Wind_Speed
17 16 18 18 16 15 14 13 11 10 9 6 5 4 2 1 1 1 4 5 3 8 9 6 6 8 4 4 4 2 5 2 3 4 1 2 2 3 0 4 1 1 2 1 2
17 18 16 18 18 17 15 14 12 11 10 8 7 5 3 1 2 5 6 7 7 7 6 7 6 8 4 5 4 5 4 8 2 2 1 0 1 2 1 2 2 3 1 2 7
20 18 16 16 19 18 16 14 12 11 10 10 8 8 6 4 2 7 9 16 10 2 2 1 2 3 3 3 3 2 5 3 2 1 0 2 2 1 4 2 6 3 1 2 4
21 20 17 17 17 19 17 16 14 12 11 10 9 10 9 3 7 0 6 4 6 4 1 1 2 3 2 1 2 1 3 3 1 2 1 2 2 6 4 5 3 3 1 4 8
20 21 19 17 16 17 18 17 15 13 12 10 10 9 5 4 7 1 5 3 7 5 5 4 3 3 3 2 1 2 1 1 4 4 3 2 5 6 5 9 5 6 4 7 8
20 20 20 18 16 17 16 17 16 14 12 11 10 7 4 12 5 3 4 5 4 6 4 4 5 4 2 1 3 1 1 3 3 4 4 4 2 4 3 4 5 2 5 6 8
23 20 21 20 18 17 17 16 16 15 14 12 11 4 9 12 1 3 5 3 5 2 5 3 1 3 3 1 1 2 4 5 3 3 5 3 7 7 6 4 7 10 8 7 8
24 22 22 21 19 17 15 15 16 16 14 11 12 3 7 4 4 5 4 4 4 4 3 4 4 2 2 1 3 1 2 3 3 3 3 5 9 4 2 1 7 9 9 8 9
19 24 21 21 19 19 16 15 14 15 14 11 4 5 6 0 7 4 3 6 5 3 3 3 5 1 2 4 4 4 6 4 6 3 3 6 3 5 3 5 8 8 8 9 10
20 22 24 23 22 17 18 14 12 9 7 6 3 4 4 5 5 7 2 6 5 6 4 3 2 4 4 7 15 11 6 4 7 2 2 6 10 9 10 6 9 10 8 9 12
25 17 26 24 23 21 15 6 6 6 10 7 8 3 2 1 5 6 6 5 5 4 8 6 6 13 13 10 7 3 2 3 1 2 4 6 11 11 12 7 10 10 11 14 16
23 21 26 26 25 23 11 8 14 4 7 3 4 2 2 5 5 6 9 7 6 6 7 5 19 8 4 7 7 5 7 6 3 3 3 7 21 13 6 11 13 15 17 18 18
27 24 25 28 25 18 16 16 8 3 4 7 3 11 4 6 5 11 13 6 5 8 12 12 4 13 10 7 8 6 11 4 4 0 4 5 25 13 18 9 8 9 12 17 18
25 24 29 28 20 13 14 11 7 4 4 10 10 8 4 6 3 4 11 9 6 16 7 11 11 7 4 11 8 13 7 6 4 2 9 5 21 12 5 12 8 12 10 13 16
19 27 29 30 10 17 13 11 6 4 12 12 11 4 10 10 9 7 2 4 8 6 8 7 10 14 13 9 10 6 8 9 6 4 4 14 8 5 6 11 20 12 11 11 10
23 33 34 17 7 13 16 13 6 10 15 8 11 12 14 12 3 6 4 5 3 5 2 4 1 8 7 5 13 6 5 2 3 6 10 13 10 26 10 12 10 3 5 6 8
22 31 31 13 13 16 17 11 13 15 9 9 14 16 25 11 13 9 13 13 8 10 14 4 5 3 2 6 2 4 6 3 5 7 10 4 11 25 3 7 7 9 6 3 7
23 33 22 7 15 17 10 14 18 10 10 5 12 20 21 16 13 8 15 17 13 3 5 14 5 11 6 7 7 11 13 7 5 4 5 4 11 14 6 3 5 6 9 8 8
21 8 12 9 16 12 10 16 16 5 9 13 14 16 12 14 10 12 16 22 16 16 11 9 7 2 1 5 11 6 13 15 7 2 1 5 9 12 3 10 4 3 7 9 9
6 7 7 14 13 10 9 10 5 2 5 8 10 13 14 21 15 19 17 16 11 18 1 6 1 1 3 4 4 4 3 5 6 6 5 5 5 8 12 12 3 8 11 11 10
4 5 5 13 10 8 9 7 2 3 2 10 8 9 17 14 18 17 17 7 23 16 9 5 5 1 5 10 12 6 8 3 2 3 5 12 7 5 10 12 5 12 13 10 11
3 4 5 8 5 3 4 7 6 4 3 1 1 4 14 17 18 17 20 20 15 15 21 6 5 5 10 3 2 7 12 12 8 5 4 1 2 1 2 9 16 14 12 9 10
4 3 4 4 6 2 3 4 2 5 6 4 4 4 4 16 10 15 12 8 11 17 20 13 7 4 2 2 2 6 11 11 3 0 10 4 6 4 5 13 12 16 9 8 8
5 5 4 2 2 4 5 5 8 4 2 5 5 3 2 6 5 16 17 4 14 16 10 17 4 14 15 6 7 9 11 11 10 4 7 10 5 6 6 12 10 9 10 10 9
2 3 3 10 13 9 7 8 7 8 6 10 9 12 4 6 13 5 10 5 7 16 11 12 10 5 1 2 4 6 10 17 17 26 12 10 13 14 16 13 11 9 9 10 9
5 4 2 1 6 14 8 8 17 8 10 7 11 17 19 7 12 13 14 8 9 5 16 6 4 7 5 6 5 4 6 19 24 18 20 10 13 5 13 9 7 10 11 11 9
2 2 5 6 10 12 18 14 15 14 10 9 18 11 12 23 12 8 12 10 10 13 15 11 6 4 10 4 4 7 26 14 14 8 18 16 15 8 8 11 9 12 12 12 8
Wind_Direction
232 225 221 214 207 206 204 201 198 198 203 201 197 205 236 272 235 40 264 235 310 333 337 326 26 344 25 33 31 115 65 152 239 165 239 337 134 336 234 120 353 279 221 269 126
234 227 220 220 209 201 202 200 197 196 202 200 192 183 180 191 11 257 238 257 282 329 359 24 12 355 11 4 18 81 108 213 229 158 241 302 138 291 85 29 237 278 230 6 141
237 230 219 219 217 204 196 200 197 197 199 196 191 175 167 145 16 244 233 226 232 235 314 42 359 35 34 353 4 135 177 212 257 188 304 332 317 197 138 269 234 219 224 173 173
234 233 219 215 214 210 199 193 193 195 196 196 195 182 172 154 225 300 318 284 206 160 205 82 46 44 62 251 340 303 230 199 314 357 18 301 327 313 184 232 184 197 244 176 199
226 228 222 213 209 209 202 194 191 194 193 195 192 193 115 180 232 332 6 75 122 145 180 154 147 145 189 211 309 209 253 223 328 313 276 304 244 251 249 266 258 282 214 225 220
226 218 217 209 202 205 202 198 191 190 194 193 186 156 139 221 204 199 100 100 134 147 160 150 187 195 194 220 172 287 317 282 308 289 272 252 258 156 272 275 274 248 266 256 231
232 214 214 211 199 202 199 200 194 186 191 196 177 145 235 219 73 156 140 161 170 179 152 193 111 163 145 275 244 311 319 330 238 246 255 158 295 227 254 5 307 302 302 286 265
240 219 205 206 205 196 198 195 194 189 186 189 171 95 229 247 147 104 121 75 79 43 81 72 82 115 163 275 32 185 66 278 266 212 261 138 261 280 60 92 285 294 299 299 286
265 229 209 200 202 194 190 198 193 187 185 156 107 135 237 88 173 151 127 138 99 55 53 79 94 169 116 140 231 196 245 234 305 19 299 189 258 260 295 324 293 278 286 301 299
267 240 213 198 193 192 188 186 197 186 155 81 50 119 272 208 155 150 95 139 120 124 77 89 131 171 179 185 223 230 227 232 221 274 239 268 262 273 285 298 286 290 288 267 272
244 270 218 196 188 182 179 146 157 196 193 181 167 225 140 175 106 154 151 105 121 157 181 183 209 216 199 216 238 132 140 229 302 307 300 249 267 262 269 287 283 287 283 275 266
229 237 231 200 191 182 162 183 192 126 168 184 161 127 173 170 145 169 160 146 183 182 156 169 231 209 202 183 211 218 246 251 218 206 250 294 280 270 246 256 262 273 278 275 276
225 224 247 200 191 180 181 189 151 129 164 179 143 201 160 148 180 192 173 147 166 180 191 210 187 167 185 190 195 210 227 186 241 222 259 318 281 276 269 261 264 265 255 264 266
222 223 237 193 189 178 190 170 140 115 196 180 184 210 161 158 237 178 182 165 198 207 190 232 238 180 188 217 161 234 162 177 228 154 263 157 282 272 263 268 247 259 265 274 283
224 227 220 182 160 181 175 144 135 76 219 180 158 146 154 175 144 210 180 82 172 173 153 202 172 195 204 204 174 233 156 182 180 209 297 242 272 337 34 279 276 263 249 279 295
222 221 203 164 149 166 138 130 123 198 206 161 140 160 159 183 186 112 139 69 138 148 280 224 294 184 206 138 176 143 107 140 160 225 238 238 210 274 249 245 259 255 265 325 337
227 201 172 155 162 141 138 164 194 219 152 167 170 165 184 166 167 158 175 181 167 181 218 155 197 219 172 107 67 150 136 225 204 201 245 152 187 245 264 267 260 249 296 44 37
246 170 149 148 140 138 148 190 213 155 167 179 166 177 185 168 188 161 162 195 213 172 160 209 224 173 182 196 168 191 208 222 226 211 233 141 225 252 251 337 252 228 159 102 69
163 146 143 145 143 140 167 211 210 144 153 161 149 173 180 178 163 167 188 200 197 193 175 186 229 67 147 152 160 178 213 222 281 95 284 221 280 295 304 269 261 57 140 97 63
144 113 130 149 136 141 199 200 127 118 150 157 162 176 176 182 177 186 182 202 205 194 222 204 92 230 171 95 274 184 197 177 201 226 253 237 269 253 339 316 325 107 78 62 55
72 102 127 143 140 161 205 209 94 236 197 159 174 170 192 180 192 187 184 203 192 188 161 145 105 125 139 204 182 185 217 189 350 248 267 265 245 327 298 296 101 94 84 79 68
79 72 141 144 154 140 153 139 145 196 194 288 148 159 187 179 189 192 197 200 194 158 192 170 135 161 205 151 224 206 217 208 229 207 217 225 251 328 320 83 97 83 89 88 77
84 93 137 135 180 126 79 152 59 163 169 127 258 235 224 184 193 200 201 172 166 172 175 173 194 126 204 275 213 215 206 194 171 157 246 273 256 163 83 104 113 119 123 115 98
102 126 138 157 109 109 134 204 184 255 215 159 186 299 214 177 185 197 208 189 174 182 165 164 173 205 212 189 145 199 204 199 187 232 240 230 207 173 158 133 142 139 137 114 92
61 210 167 175 199 193 156 161 159 172 214 199 209 217 252 186 190 180 187 133 180 177 176 178 215 200 220 158 174 187 188 198 207 227 221 236 216 198 179 164 162 159 123 93 84
109 119 56 54 114 188 210 204 184 190 171 217 224 205 211 265 204 196 177 184 170 175 188 204 226 152 241 214 187 234 221 206 213 223 233 246 256 165 166 169 168 136 120 109 96
64 101 111 161 175 185 212 213 210 194 206 210 200 188 193 212 247 260 185 180 159 170 190 200 173 144 237 165 114 261 235 200 217 207 215 228 236 154 157 163 150 137 129 120 104